AirNav   Phillips 66 Aviation Fuel
 
 1550 users online  

W34 Shiocton Airport
Shiocton, Wisconsin, USA

GOING TO SHIOCTON?


FAA INFORMATION EFFECTIVE 16 AUGUST 2018

Location

FAA Identifier: W34
Lat/Long: 44-27-16.9410N / 088-33-42.3640W
44-27.282350N / 088-33.706067W
44.4547058 / -88.5617678
(estimated)
Elevation: 769 ft. / 234 m (estimated)
Variation: 01W (1985)
From city: 1 mile NE of SHIOCTON, WI
Time zone: UTC -5 (UTC -6 during Standard Time)
Zip code: 54170

Airport Operations

Airport use: Open to the public
Activation date: 06/1986
Control tower: no
ARTCC: MINNEAPOLIS CENTER
FSS: GREEN BAY FLIGHT SERVICE STATION
NOTAMs facility: GRB (NOTAM-D service available)
Attendance: UNATNDD
ARPT CLSD 15 MAR - 25 APR.
Wind indicator: yes
Segmented circle: no

Airport Communications

CTAF: 122.9
WX AWOS-3 at ATW (12 nm S): PHONE 920-832-2597
WX AWOS-3 at CLI (12 nm NW): 120.675 (715-823-7691)
WX ASOS at GRB (19 nm E): PHONE 920-494-7140
WX AWOS-3 at EZS (20 nm N): 118.65 (715-526-2967)

Nearby radio navigation aids

VOR radial/distance  VOR name  Freq  Var
GRBr248/16.8GREEN BAY VORTAC115.5001E
OSHr357/27.9OSHKOSH VORTAC111.8002E

 
NDB name  Hdg/Dist  Freq  Var  ID
FAMIS276/13.835602WGR --. .-.
WAUPACA071/20.938201WPCZ .--. -.-. --..

Airport Services

Fuel available: MOGAS
Parking: tiedowns

Runway Information

Runway 18/36

Dimensions: 2340 x 110 ft. / 713 x 34 m
RY 18/36 REMEASURED.
Surface: turf, in good condition
Runway edge markings: RY 18/36 MKD WITH ORANGE & WHITE BARRELS.
RUNWAY 18  RUNWAY 36
Latitude: 44-27.596667N44-27.234667N
Longitude: 088-33.639333W088-33.639333W
Elevation: 770.0 ft.770.0 ft.
Traffic pattern: leftleft
Runway end identifier lights: yes
18/36 NSTD REIL; SOLAR POWERED.
yes
Obstructions: 93 ft. trees, 2600 ft. from runway, 150 ft. left of centerline, 28:1 slope to clear63 ft. trees, 1200 ft. from runway, 100 ft. right of centerline, 19:1 slope to clear

Runway 9/27

Dimensions: 1415 x 110 ft. / 431 x 34 m
RY 09/27 REMEASURED.
Surface: turf, in good condition
Runway edge markings: RY 09/27 MKD WITH ORANGE & WHITE BARRELS.
RUNWAY 9  RUNWAY 27
Latitude: 44-27.182333N44-27.182333N
Longitude: 088-33.973833W088-33.671667W
Elevation: 770.0 ft.770.0 ft.
Traffic pattern: leftleft
Obstructions: 75 ft. trees, 1500 ft. from runway, 100 ft. right of centerline, 20:1 slope to clear16 ft. road, 320 ft. from runway, 150 ft. left of centerline, 20:1 slope to clear

Airport Ownership and Management from official FAA records

Ownership: Privately-owned
Owner: SHIOCTON FLYERS CLUB INC
7551 PARK AVE
SHIOCTON, WI 54170
Phone 920-986-3690
Manager: PATRICK J VAN STRATEN
7551 PARK AVE
SHIOCTON, WI 54170
Phone 920-986-3690

Airport Operational Statistics

Aircraft based on the field: 16
Single engine airplanes: 13
Ultralights: 3
  • ULTRALIGHT ACTIVITY ON & INVOF ARPT.
    
Aircraft operations: avg 77/week *
75% local general aviation
25% transient general aviation
* for 12-month period ending 21 September 2017

Additional Remarks

DEER ACTIVITY ON AND INVOF ARPT.

Instrument Procedures

There are no published instrument procedures at W34.

Some nearby airports with instrument procedures:

KATW - Appleton International Airport (12 nm S)
KCLI - Clintonville Municipal Airport (12 nm NW)
KGRB - Green Bay-Austin Straubel International Airport (19 nm E)
KEZS - Shawano Municipal Airport (20 nm N)
KPCZ - Waupaca Municipal Airport (21 nm W)
 
Loc | Ops | Rwys | IFR | FBO | Links
Com | Nav | Svcs | Stats | Notes


 
Area around W34 (Shiocton Airport)
 
Road maps at: MapQuest Bing Google
 
Aerial photo
No photo
 
Sectional chart

 
Airport distance calculator
Flying to Shiocton Airport? Find the distance to fly.

From to W34

Sunrise and sunset
Times for 20-Aug-2018
 Local
(UTC-5)
 Zulu
(UTC)
Morning civil twilight05:3310:33
Sunrise06:0411:04
Sunset19:5100:51
Evening civil twilight20:2201:22

Current date and time
Zulu (UTC)  20-Aug-2018 20:58:39
Local (UTC-5)  20-Aug-2018 15:58:39
 
METAR
KCLI 
11nm NW 
202055Z AUTO 05005KT 10SM CLR 23/18 A2992 RMK AO2 T02310180
KATW 
12nm S 
202045Z 09012G17KT 10SM BKN027 BKN100 24/15 A2991
KGRB 
18nm E 
202053Z 06011KT 10SM SCT026 SCT033 25/21 A2992 RMK AO2 SLP131 T02500206 58008
KEZS 
20nm N 
202055Z AUTO 06009KT 10SM CLR 24/19 A2993 RMK AO2 LTG DSNT S AND SW T02370185
KPCZ 
21nm W 
202055Z AUTO 05008KT 020V080 10SM CLR 25/20 A2992 RMK AO2 T02470204
TAF
KATW 
12nm S 
201847Z 2019/2118 09008KT P6SM SCT018 BKN120 TEMPO 2019/2021 BKN018 FM202300 06008KT P6SM SCT035 BKN090 FM210100 04007KT P6SM VCSH OVC060 TEMPO 2101/2105 4SM -SHRA BKN035 FM210500 03008KT P6SM BKN035 TEMPO 2105/2109 4SM -SHRA BKN025 FM211200 36009G15KT P6SM BKN017 FM211500 35012G22KT P6SM BKN025
KGRB 
18nm E 
201847Z 2019/2118 09008KT P6SM SCT025 BKN120 TEMPO 2019/2021 BKN025 FM202300 06008KT P6SM SCT035 BKN090 FM210100 04007KT P6SM VCSH OVC060 TEMPO 2101/2105 4SM -SHRA BKN035 FM210500 03008KT P6SM BKN035 TEMPO 2105/2109 4SM -SHRA BKN025 FM211200 36009G15KT P6SM BKN017 FM211500 35012G22KT P6SM BKN025
NOTAMs
Click for the latest NOTAMs
NOTAMs are issued by the DoD/FAA and will open in a separate window not controlled by AirNav.

 

 
 

FBO, Fuel Providers, and Aircraft Ground Support

  
 Business Name 
 
 Contact 
 
 Services / Description 
 
Fuel Prices
 
Comments
  
Shiocton Flyers Club, Inc. 920-986-3690
no information available

If you are affiliated with Shiocton Flyers Club, Inc. and would like to show here your services, contact info, web link, logo, and more, click here
Mogas
RA $3.00 
 Updated 01-Jul-2015
 
   write
RA=Restricted
Update Fuel Prices
 

Would you like to see your business listed on this page?

 If your business provides an interesting product or service to pilots, flight crews, aircraft, or users of the Shiocton Airport, you should consider listing it here.  To start the listing process, click on the button below
 
Add a business
 

Other Pages about Shiocton Airport

www.shioctonairport.com
Page from the Wisconsin airport directory (PDF)
 
Update a link
 
Copyright © AirNav, LLC. All rights reserved. Privacy Policy  Contact